Weather in Gunzburg

Germany     48°27′14″N   10°16′57″E
temp.,
°C
wind,
m/s
gust,
m/s
humid.,
%
clouds,
%
prec.,
mm/h
press.,
hPa
HPBL,
m
21 april, wed
wed2123:00+7s117248 0.0 101610
02:00+4ssw11873 0.0 101710
05:00+3sw11880 0.0 101710
08:00+5sw11832 0.0 101783
11:00+12ssw21660 0.0 1016609
14:00+15sw11525 0.1 10151533
17:00+15nw12477 0.1 10131745
20:00+10n22778 0.6 101419
22 april, thu
thu2223:00+7nnw118524 0.1 101711
02:00+5wnw128766 0.2 101811
05:00+4n229363 0.0 101922
08:00+5n3491100 0.0 1021375
11:00+5nne448497 0.1 1023466
14:00+9nnw3462100 0.1 10221130
17:00+11nnw444535 0.0 10211529
20:00+5nne33705 0.0 102434
23 april, fri
fri2323:00+3nw11735 0.0 102610
02:00+1n22815 0.0 102710
05:000n11853 0.0 102810
08:00+3nnw11730 0.0 1028130
11:00+8n23535 0.0 10281138
14:00+11nne34465 0.0 10261589
17:00+11nne55515 0.0 10261477
20:00+6ne34760 0.0 102862
24 april, sat
sat2423:00+3ne22770 0.0 102918
02:00+1ne22880 0.0 102922
05:00−1ene22890 0.0 102812
08:00+3ene22750 0.0 1028162
11:00+9ene33585 0.0 1027827
14:00+12ne335112 0.0 10241267
17:00+13nne3450100 0.0 10231581
20:00+7nne3677100 0.0 1024112
25 april, sun
sun2523:00+4n357795 0.0 102694
02:00+1nne33900 0.0 102750
05:000nne22924 0.0 102818
08:00+2ne358419 0.0 1028258
11:00+8ene45635 0.0 10271072
14:00+11ne44515 0.0 10251389
17:00+11ne55475 0.0 10241259
20:00+6nne476895 0.0 1025104